Simultaneous Nadir Overpasses (SNOs) Predictions

Prediction of SNOs between GOES-17 and METOP-B Satellite Orbit:

Table of predicted SNOs for the next 14.0 days since TLE Epoch: 10/10/2025
Index Date Time (GOES-17) GOES-17 Lat,Lon METOP-B Lat,Lon Distance(km) Time Diff (sec)
1 10/12/2025 03:06:05 -0.25, -89.46 -0.56, -90.95 169.06 80
2 10/13/2025 02:42:52 -0.25, -89.46 0.55, -85.99 396.42 80
3 10/14/2025 15:04:35 0.27, -89.53 0.50, -90.59 120.70 80
4 10/15/2025 14:41:22 0.26, -89.53 -0.60, -85.62 445.14 80
5 10/17/2025 03:03:12 -0.27, -89.47 -0.44, -90.26 89.71 80
6 10/18/2025 02:40:00 -0.26, -89.48 0.67, -85.30 476.67 80
7 10/19/2025 15:01:42 0.28, -89.56 0.38, -89.90 39.27 80
8 10/22/2025 03:00:20 -0.29, -89.51 -0.29, -89.57 6.51 80
9 10/24/2025 14:56:10 0.30, -89.61 0.22, -89.21 44.83 80
